Theta_e
283 283 283 282 283 283 284 283 284 284 284 284 284 284 282 282 279 278 278 280 281 285 287 284 287 290 292 292 293 291 290 290 290 291 291 292 292 292 294 295 296 297 298 298 298 298 299 300 300 301 301 302 302 303 304 305 305 306 306 307 309 309 308 309 312 318 319 317 316 314 313 313 313 313
282 282 282 282 282 283 282 282 283 283 283 283 283 283 283 283 280 279 278 278 282 282 286 286 285 288 289 289 288 289 289 290 290 290 290 290 291 292 293 294 294 296 297 296 296 297 297 298 298 299 300 301 302 303 303 304 305 306 306 307 309 310 310 309 310 314 317 317 315 314 313 312 312 313
281 281 280 281 281 282 281 281 282 282 282 282 282 282 283 282 282 280 279 277 281 285 282 285 287 286 287 288 288 288 289 289 288 288 289 290 290 291 291 291 293 294 294 294 295 296 297 297 298 298 299 300 301 302 302 302 303 304 306 307 308 308 310 309 310 314 316 316 315 314 313 312 312 313
280 280 280 280 280 281 281 281 281 281 281 282 281 281 281 281 281 281 279 278 278 283 283 283 285 286 286 287 285 286 287 288 288 288 289 289 289 289 289 291 291 292 293 294 295 295 296 296 296 297 298 299 300 301 301 302 302 303 304 306 307 308 308 308 308 312 315 314 314 313 313 312 312 312
279 279 279 279 280 280 279 280 280 280 280 281 281 281 281 280 281 280 279 277 278 280 283 283 283 284 285 284 285 284 285 285 287 287 288 288 288 288 288 288 289 291 292 292 293 294 295 296 296 297 297 298 299 299 300 301 302 302 303 303 305 307 307 308 308 309 313 314 314 313 313 312 312 311
278 278 278 278 278 278 278 278 278 278 278 279 279 279 280 279 279 280 279 278 277 276 280 280 282 282 284 282 285 284 283 284 285 285 286 287 287 287 288 288 288 290 290 291 292 293 294 295 296 296 297 297 298 299 299 300 300 301 302 302 302 304 305 307 307 308 310 313 313 313 312 312 311 311
277 277 277 277 277 277 276 277 277 277 277 278 277 277 278 277 278 279 279 277 276 276 277 279 279 280 282 281 282 283 284 284 284 284 284 285 286 287 287 287 288 289 290 291 292 293 293 294 295 295 296 296 297 298 298 298 299 299 300 300 301 302 304 305 305 306 308 310 312 312 312 311 311 311
276 276 275 276 276 276 275 276 276 277 277 276 276 276 277 277 277 278 278 278 277 276 275 277 278 279 279 280 282 283 283 283 283 284 284 285 285 286 287 287 288 288 290 290 291 291 292 292 293 294 294 295 295 296 297 298 298 298 299 300 300 301 302 304 304 305 306 307 309 310 311 311 311 310
276 275 275 275 275 275 275 275 275 276 275 276 276 275 276 276 277 277 277 277 277 276 275 276 278 279 279 280 280 281 280 281 281 282 282 283 283 284 285 286 287 288 289 289 290 290 291 291 292 293 293 294 295 295 296 296 297 298 298 298 299 300 300 302 303 303 304 305 305 307 309 310 310 309
276 275 275 275 275 275 274 274 275 275 275 275 275 275 275 275 276 275 275 276 276 275 275 275 275 277 277 277 278 280 280 279 279 280 281 282 283 283 283 285 286 287 288 288 288 289 290 291 292 293 293 293 294 294 294 295 295 296 296 297 298 298 299 300 302 303 303 303 303 304 306 307 308 308
276 275 275 275 275 274 274 274 274 274 274 274 274 274 274 274 274 274 274 275 274 274 274 274 275 275 276 277 276 278 279 279 279 278 279 279 282 283 283 282 284 286 286 287 288 288 288 289 289 289 290 291 291 292 293 294 294 294 295 296 297 298 298 299 300 301 302 302 302 302 302 303 305 306
275 275 275 275 275 275 275 274 274 274 273 274 273 274 274 274 273 273 273 272 272 272 272 272 272 273 273 274 276 277 277 276 277 278 277 275 276 277 280 281 282 284 285 285 286 287 288 288 289 290 291 292 292 292 292 292 293 292 293 294 295 296 297 298 299 300 301 301 301 302 302 301 302 304
275 275 275 275 275 275 274 275 275 275 274 273 272 272 273 273 272 271 271 271 271 271 271 271 272 272 272 273 273 273 273 273 273 275 275 274 276 277 278 279 281 281 282 283 284 285 286 286 286 287 288 289 290 290 292 292 291 292 293 293 294 295 295 296 297 298 299 300 301 301 301 301 301 301
275 275 275 274 274 274 273 273 274 274 274 275 274 273 273 272 271 271 270 270 270 270 270 270 270 270 270 271 272 272 273 274 275 274 274 273 275 276 275 276 278 280 281 281 281 283 286 286 286 287 286 288 289 289 290 290 291 291 292 293 293 294 294 295 296 297 298 299 300 300 300 300 300 300
274 274 273 273 273 273 273 273 273 274 274 274 275 275 275 274 272 271 270 270 271 270 269 270 270 270 270 271 272 272 273 274 273 273 274 273 273 272 271 270 275 279 279 277 276 277 281 283 283 285 286 287 288 289 289 290 291 291 291 291 291 292 293 294 295 295 296 298 299 300 300 300 300 300
272 272 272 272 272 272 272 272 272 273 273 274 274 274 274 274 275 275 273 271 270 270 270 270 270 270 270 271 272 272 273 273 273 273 273 273 273 272 272 273 272 277 280 277 276 276 279 280 280 281 283 286 287 288 289 290 290 291 291 291 291 292 292 293 294 294 295 296 297 299 299 299 299 299
271 271 271 271 272 272 272 272 272 272 272 274 274 274 274 274 274 275 276 276 274 273 272 271 271 272 272 272 273 274 274 275 273 273 273 273 273 273 273 273 274 276 279 277 276 275 278 280 279 279 281 282 284 285 287 289 290 290 291 291 291 291 292 292 293 294 294 295 296 297 299 299 299 299
271 271 271 270 270 272 272 272 272 273 272 272 272 272 272 272 274 276 276 276 277 276 274 273 272 274 275 273 274 275 276 274 273 273 273 274 274 274 274 275 276 277 279 276 275 274 276 279 279 278 280 283 283 284 286 288 289 290 290 291 291 291 291 292 292 293 294 294 295 296 297 298 299 298
271 271 271 271 271 271 272 272 273 272 272 272 272 272 272 272 273 274 274 275 275 275 275 275 275 275 276 275 276 276 277 276 276 275 274 275 275 276 277 277 277 277 278 278 276 272 275 278 277 278 280 282 283 284 286 287 287 288 289 290 290 290 291 291 292 292 293 293 294 295 296 297 298 298
272 272 272 271 271 271 272 274 275 275 274 273 272 272 272 273 274 274 276 278 278 277 276 276 276 276 276 278 277 277 276 276 276 277 277 277 276 275 274 273 274 274 277 278 276 273 274 278 276 276 278 280 280 283 284 286 287 288 289 289 290 290 290 291 291 292 292 293 294 294 295 296 297 298
272 272 272 272 272 273 273 275 276 277 276 274 273 273 273 274 274 274 276 278 280 279 280 280 280 281 282 281 281 282 282 280 280 278 275 274 275 273 271 272 272 273 275 276 277 275 273 276 276 276 277 278 278 280 282 284 287 288 288 289 289 290 290 290 290 291 292 292 293 294 294 295 296 296
272 273 274 274 273 273 273 275 277 278 277 275 274 274 273 273 273 274 276 277 277 280 280 280 280 280 280 280 281 281 281 281 280 276 273 275 275 272 272 270 272 273 274 275 277 274 273 275 277 276 277 278 279 280 282 283 284 286 287 288 289 289 289 290 290 290 291 292 292 293 293 294 295 295
272 273 274 275 275 274 275 278 278 279 277 275 275 275 274 273 273 274 276 276 275 276 276 277 277 277 278 278 278 278 280 280 280 278 276 276 274 272 272 272 272 270 272 275 278 273 273 274 275 275 273 272 275 278 278 280 283 285 286 286 286 288 289 289 289 290 290 291 292 292 293 294 294 294
272 273 273 275 276 277 278 278 279 279 279 277 276 275 274 274 273 276 276 276 276 275 276 276 276 276 277 277 277 277 277 277 277 277 277 276 275 273 272 272 272 270 271 275 277 273 274 274 273 275 273 271 270 275 278 278 279 279 281 284 285 287 288 288 288 289 290 290 290 291 292 293 294 293
272 273 274 274 276 277 277 277 278 279 279 279 276 275 274 274 276 277 275 275 275 274 274 274 274 274 275 275 275 276 276 276 276 277 277 277 276 275 273 272 272 271 273 275 278 275 272 274 272 274 273 273 273 273 275 277 278 279 280 280 281 284 285 286 287 286 288 289 290 291 292 293 293 293
273 273 273 273 274 276 277 277 278 278 278 278 275 274 277 278 278 275 274 273 272 272 272 272 272 272 273 273 273 274 274 275 275 275 276 276 276 276 275 273 272 270 271 275 278 275 273 272 273 272 272 271 271 273 272 273 276 277 279 280 281 282 284 284 285 285 286 287 287 289 291 292 293 293
273 273 272 272 274 276 276 276 276 276 276 275 273 276 276 276 276 274 271 271 270 270 270 270 269 270 271 271 272 272 273 274 274 274 275 275 275 275 275 275 275 274 275 276 276 276 274 272 274 272 271 272 270 271 272 271 273 277 277 278 278 280 283 284 284 284 285 286 287 289 290 291 292 293
272 271 271 272 275 275 274 274 274 274 273 272 274 274 274 274 272 269 269 269 269 268 268 268 269 269 270 270 271 272 273 273 274 274 274 274 275 275 275 275 276 276 276 276 276 276 275 273 273 274 273 271 270 269 269 273 274 274 274 276 278 279 279 281 283 284 285 286 286 287 288 289 290 291
272 273 274 274 273 272 272 272 271 270 270 271 272 272 271 270 267 267 267 266 266 266 266 267 268 268 270 270 271 272 273 274 274 274 274 275 275 275 275 275 275 275 275 276 276 276 275 274 273 274 273 273 271 271 272 271 272 273 274 273 274 277 279 281 282 283 284 285 285 286 287 288 288 289
274 273 272 271 270 270 269 268 267 267 267 269 269 269 268 266 266 265 265 265 264 264 265 266 266 268 269 270 271 272 273 272 272 273 273 273 273 274 273 273 273 275 275 275 276 276 276 275 275 274 273 273 273 272 272 272 271 273 274 274 274 276 277 278 279 281 283 283 284 285 286 288 288 289
269 268 268 267 269 268 268 267 267 267 267 265 265 266 265 265 265 265 264 264 264 264 265 266 267 268 269 270 270 270 271 271 272 273 273 273 273 273 273 273 272 273 274 276 276 277 276 276 276 275 273 272 273 273 273 273 272 273 274 275 275 272 275 277 279 280 281 282 283 285 286 287 288 289
266 265 266 266 265 264 264 264 264 265 264 264 264 264 264 264 265 265 266 266 265 265 266 266 266 267 267 267 268 269 270 271 272 273 273 273 273 273 273 272 271 272 273 274 275 277 277 276 276 276 275 274 272 273 274 273 272 273 273 275 276 276 277 276 276 278 281 283 282 283 284 285 286 287
265 265 264 263 263 263 263 263 263 263 263 263 263 263 263 264 264 264 264 263 264 264 264 264 264 265 266 266 268 268 269 270 271 273 272 273 273 273 273 272 272 272 272 272 274 275 276 277 277 277 276 276 275 275 273 271 273 274 274 274 275 275 276 277 277 277 280 281 281 282 282 284 285 286
264 263 262 262 262 262 262 262 262 262 262 262 262 263 264 263 263 263 264 264 264 264 264 264 264 264 265 265 267 268 268 269 270 271 272 271 272 272 272 271 272 273 273 273 273 274 276 276 277 277 277 277 277 277 275 273 272 274 274 275 275 275 276 278 278 279 279 280 280 280 281 282 284 286
263 262 261 262 262 262 262 262 262 261 261 261 261 261 262 263 263 263 263 264 264 264 264 264 265 265 265 266 266 266 267 267 268 269 270 271 271 271 271 271 271 272 273 273 274 275 276 276 276 276 276 276 276 277 279 277 275 274 275 275 276 275 276 278 278 279 280 281 281 279 280 281 283 285
262 262 261 261 261 261 261 261 261 261 260 261 260 261 261 261 263 263 263 264 263 263 264 264 265 265 265 265 266 266 266 267 267 267 268 268 268 269 270 270 271 272 272 273 273 275 276 276 276 275 274 274 273 272 274 280 279 276 275 274 276 276 277 278 279 280 280 280 281 280 279 279 281 283
261 261 261 260 260 261 260 261 261 260 260 260 260 261 261 261 262 263 263 264 264 264 264 265 265 265 265 265 265 266 266 266 265 266 266 267 268 268 269 269 270 271 271 272 274 274 275 275 276 275 274 273 272 271 273 278 279 280 277 275 276 277 277 278 279 279 280 281 281 281 280 281 281 283
260 261 260 260 260 260 260 260 260 260 260 260 260 260 261 262 262 262 263 264 264 264 265 265 265 265 265 265 264 264 265 265 265 265 266 266 267 267 268 268 269 270 271 272 273 274 275 275 275 275 275 273 272 272 273 276 278 280 281 278 276 277 279 279 278 278 279 282 281 282 282 281 282 283
260 259 259 259 260 260 259 259 259 259 259 259 260 260 260 261 262 262 263 263 264 265 265 265 265 265 265 265 265 264 264 264 264 264 265 266 266 266 267 268 268 269 270 270 272 273 274 274 275 276 276 274 273 274 275 275 276 279 282 283 280 279 279 279 279 280 280 280 281 282 283 283 282 283
259 259 259 259 259 259 259 259 259 259 259 259 260 260 260 260 261 262 262 264 265 265 265 265 265 265 265 265 264 264 264 264 264 264 265 265 266 267 267 268 268 268 269 269 270 272 273 274 276 276 275 275 276 277 277 277 278 278 279 282 284 282 281 281 280 279 279 281 281 280 279 280 279 281
259 258 259 259 259 258 258 258 259 259 259 259 259 260 260 261 261 262 263 264 265 264 265 265 265 265 264 265 265 264 264 264 264 265 265 265 266 266 267 268 267 268 268 268 270 270 272 274 276 277 276 276 277 278 276 275 274 276 278 280 282 283 283 282 281 280 279 280 280 279 278 277 278 278
258 258 258 258 258 258 258 258 258 258 258 259 259 260 260 261 261 263 263 264 264 265 265 265 265 265 265 265 265 265 264 264 264 264 265 265 265 266 266 267 267 268 268 268 269 270 273 275 275 275 276 276 276 274 273 274 274 276 276 276 278 280 281 282 282 281 281 280 279 276 275 275 276 276
257 258 257 258 257 257 257 258 258 258 258 259 259 259 259 260 261 262 262 263 264 264 264 265 265 265 265 265 265 265 264 264 264 264 265 265 265 265 265 266 267 268 268 269 270 272 273 274 274 274 275 275 275 275 273 274 275 275 274 275 276 278 280 281 281 280 280 280 280 279 279 278 276 273
257 257 257 257 257 257 257 257 257 257 258 258 258 259 259 260 260 261 262 263 263 264 264 265 265 265 264 265 265 265 265 265 265 265 264 265 265 266 266 266 267 268 268 269 270 270 271 272 273 274 273 272 273 273 272 273 274 274 274 274 275 276 276 277 276 277 277 278 279 279 279 279 279 279
257 257 257 257 256 256 257 257 257 257 257 257 258 258 259 259 260 261 262 263 263 264 264 264 264 264 264 264 264 264 264 266 265 265 265 265 266 266 266 267 267 267 268 269 269 269 270 270 272 273 272 272 272 272 272 272 272 272 273 273 273 274 274 274 273 271 271 271 275 278 278 279 279 279
Wind_Speed
4 4 4 4 5 5 5 5 5 6 6 6 6 6 7 8 10 13 15 13 12 7 6 9 8 7 6 4 4 8 10 12 11 10 10 10 10 12 15 18 19 19 20 19 19 19 20 20 20 20 20 20 21 21 21 21 21 22 22 23 24 23 24 24 22 20 20 20 19 19 18 16 15 14
4 4 4 5 5 5 5 5 6 6 6 7 6 7 7 7 9 11 13 16 10 11 9 7 9 7 8 10 11 10 10 10 12 12 12 11 11 14 16 18 19 20 21 19 19 20 20 21 21 21 21 21 21 22 22 22 22 22 23 23 23 23 22 23 23 22 19 21 21 21 21 19 19 17
4 5 5 5 5 5 6 6 6 6 6 6 7 8 8 8 9 10 11 14 13 6 10 12 9 11 12 10 11 10 10 11 12 13 13 12 12 12 13 15 18 19 20 20 19 20 20 21 21 21 21 22 22 22 22 22 23 23 23 23 23 23 22 22 21 21 18 18 21 21 20 20 20 20
4 5 6 6 5 6 6 7 6 6 7 7 8 8 8 9 9 10 11 13 19 13 11 13 13 11 13 12 13 13 11 10 12 11 11 12 14 11 11 12 15 18 19 20 21 21 21 21 21 22 22 23 23 23 23 23 23 24 24 23 23 23 22 22 21 20 18 17 17 18 18 19 20 21
5 5 6 6 6 7 7 7 7 7 8 8 8 8 8 9 9 9 11 14 17 17 11 11 12 11 12 14 11 14 13 12 11 11 12 12 12 12 12 12 14 15 18 19 20 20 21 21 21 21 21 22 23 23 23 23 23 22 23 23 23 23 22 22 22 21 19 17 17 18 18 19 20 20
5 5 6 7 7 7 7 8 8 8 8 8 8 8 8 9 9 9 10 13 14 19 16 13 12 12 11 14 11 12 15 15 13 14 12 11 12 11 12 12 11 14 16 18 19 21 22 22 22 21 21 22 22 23 23 22 22 22 22 23 22 23 23 23 22 21 19 20 19 17 19 19 20 20
6 6 6 7 7 6 8 8 8 8 8 7 8 10 9 10 10 10 10 12 14 16 17 15 15 12 11 12 14 14 13 15 14 15 14 12 11 10 12 12 12 15 16 19 19 20 21 22 23 22 22 22 22 22 22 22 22 22 22 22 22 21 21 22 22 22 22 20 21 21 19 19 20 21
6 7 7 7 7 8 8 8 8 7 7 8 8 9 9 9 10 10 10 11 12 14 17 16 14 14 14 12 13 12 12 14 15 13 14 14 13 13 12 13 13 13 17 18 20 21 21 22 23 24 23 22 22 22 22 22 22 22 22 21 21 21 21 21 21 21 21 22 22 21 22 23 21 21
6 7 7 8 8 8 8 9 8 8 10 9 9 9 9 9 10 9 10 11 12 13 16 17 15 14 14 12 13 13 13 14 14 14 15 14 15 15 14 12 12 17 21 22 22 21 21 21 22 23 23 22 22 21 21 22 22 21 21 21 20 21 22 21 21 20 20 19 19 20 20 21 22 22
6 6 7 7 8 8 9 9 9 9 11 10 10 11 11 10 10 11 11 11 12 13 14 15 17 14 13 14 12 13 13 14 15 14 14 14 14 14 13 11 10 9 9 9 10 11 13 15 17 18 19 21 22 22 22 21 22 20 19 19 19 20 21 21 21 21 21 20 20 19 20 20 21 23
6 7 7 7 8 8 9 9 10 10 11 10 12 11 11 11 11 11 11 11 12 13 14 14 13 14 13 12 14 12 13 14 13 14 14 14 11 12 13 15 12 12 13 15 17 16 17 19 17 20 23 24 24 24 23 22 22 20 18 19 20 20 22 22 21 21 21 21 21 20 20 20 22 24
7 7 8 7 8 8 8 9 11 12 12 11 12 11 10 11 11 11 11 11 11 12 13 13 13 12 14 13 12 12 13 12 11 10 12 15 16 15 14 14 15 13 13 13 12 12 14 15 17 19 21 23 24 24 22 22 21 19 19 20 21 22 22 22 22 22 21 21 21 21 21 21 22 24
7 7 7 7 7 9 13 17 16 15 14 12 11 11 10 11 11 11 10 10 11 11 11 12 11 12 12 12 13 13 12 13 14 13 13 14 15 15 15 15 14 14 15 14 14 12 12 12 12 12 12 11 13 13 14 14 16 17 19 19 20 21 22 23 23 22 22 22 22 22 22 22 22 22
8 8 8 8 12 14 15 15 16 16 16 16 13 12 11 11 11 11 11 11 11 11 12 12 12 13 12 12 13 13 13 13 14 14 13 14 14 13 14 15 12 11 13 14 14 12 11 11 12 11 12 11 11 10 10 9 10 10 13 15 17 19 21 22 23 23 23 22 23 23 23 23 22 22
9 8 8 9 10 11 12 11 13 16 17 16 17 17 17 15 12 12 12 12 11 11 12 12 12 12 14 13 13 13 13 12 13 13 12 13 13 12 14 16 12 7 12 14 15 16 14 14 14 13 13 12 12 11 11 13 13 15 17 19 20 20 20 21 22 23 24 24 23 23 23 24 24 23
8 9 9 8 8 8 9 11 13 14 15 16 17 17 17 17 18 17 14 13 13 13 13 14 13 13 14 14 13 13 13 13 13 12 13 13 13 14 14 14 15 13 14 17 17 18 12 12 15 16 14 14 13 12 15 20 20 19 19 20 20 21 21 21 22 22 23 24 24 23 23 24 24 24
8 8 9 9 8 8 12 12 11 11 12 15 17 17 18 18 18 19 21 21 17 15 16 16 17 15 15 16 14 13 15 15 16 15 14 14 14 14 15 14 15 13 13 16 17 19 16 13 14 16 14 14 14 15 17 21 22 23 23 22 22 22 22 22 22 22 23 23 24 24 24 24 24 24
8 9 10 11 10 10 11 12 13 13 14 14 14 14 13 14 17 21 23 24 26 23 18 18 17 17 16 16 16 17 18 18 16 15 15 14 15 15 14 17 18 16 11 13 16 19 16 10 13 15 14 13 13 14 18 24 24 23 23 22 22 22 22 23 22 22 22 23 24 25 25 24 24 25
9 10 10 11 12 13 13 12 14 15 16 15 14 13 14 14 15 16 17 18 17 17 16 17 18 19 18 18 19 19 17 19 18 17 16 15 15 16 17 15 14 13 11 14 13 18 16 8 13 15 14 13 13 13 16 22 24 25 25 25 24 24 24 23 23 23 23 23 24 25 25 25 25 25
9 10 10 11 13 14 14 17 21 20 17 15 14 16 15 15 15 15 18 22 22 20 19 18 18 17 18 22 20 18 16 14 13 14 14 13 13 14 15 15 12 12 10 12 14 15 16 9 13 15 13 13 14 13 14 19 22 23 24 25 25 26 25 25 24 24 24 24 24 25 25 25 25 25
9 10 11 12 13 15 15 19 22 22 22 16 14 14 14 13 12 13 13 21 25 26 29 31 31 31 30 29 28 28 30 23 18 13 15 15 13 15 15 15 12 12 11 11 13 14 17 11 12 15 13 12 13 14 14 14 18 22 23 25 25 25 26 26 25 25 25 25 24 24 25 25 24 24
10 12 18 18 15 16 16 20 22 24 21 14 15 16 17 15 16 15 16 14 17 24 27 28 28 27 27 27 27 26 26 26 20 13 16 14 14 16 14 16 13 13 12 12 12 14 15 13 12 14 14 14 11 12 12 13 15 21 21 25 26 26 25 25 26 25 27 27 25 25 25 24 22 18
10 11 13 18 17 16 18 24 24 25 22 16 16 17 17 17 14 13 13 13 14 14 14 15 16 17 19 17 15 16 24 25 23 18 17 15 14 15 14 14 15 15 12 11 10 13 12 10 11 12 15 14 10 8 11 11 11 11 11 13 14 20 22 23 24 25 25 26 28 26 25 24 21 14
9 9 9 11 16 19 21 23 25 25 27 21 18 16 15 15 15 12 13 14 15 14 12 11 11 13 12 13 13 14 15 16 17 17 15 14 14 14 14 14 14 15 13 10 11 12 12 10 12 9 12 14 13 7 11 12 11 12 13 13 13 16 18 17 18 23 25 25 27 28 28 26 23 14
9 10 10 9 13 20 23 24 25 26 27 25 18 15 14 13 18 21 15 13 13 10 11 12 11 11 11 11 12 12 13 13 13 14 14 14 14 14 14 14 14 15 15 14 16 12 12 10 12 10 12 12 15 15 13 13 12 11 11 13 15 14 13 13 12 12 13 18 22 26 27 27 27 20
9 8 9 10 15 21 23 25 26 26 25 26 17 15 22 25 25 18 14 10 9 10 10 10 10 10 10 10 11 12 12 12 13 13 13 13 14 13 13 14 14 14 15 14 17 13 13 12 11 13 13 13 16 13 17 14 11 11 13 12 12 13 13 13 13 13 12 11 11 13 15 24 25 27
9 9 10 12 18 22 24 25 25 24 25 20 14 22 23 23 25 19 9 10 10 9 9 9 9 9 8 9 9 9 10 11 12 12 12 13 13 13 13 15 15 16 16 15 15 14 14 13 12 13 15 13 16 14 14 15 12 9 12 12 13 13 12 12 14 13 13 11 11 15 18 19 22 25
9 10 10 13 22 23 24 24 22 22 20 14 20 21 22 22 19 10 10 9 9 10 9 9 9 9 9 9 10 10 10 12 12 13 13 13 14 14 14 15 16 16 18 17 16 15 15 14 14 14 16 15 16 16 16 14 14 13 13 13 13 14 13 13 14 14 13 13 12 11 10 9 9 11
9 13 19 20 22 22 20 20 18 14 14 17 18 19 19 17 9 9 9 9 9 10 10 9 10 10 9 9 11 12 12 14 13 12 11 12 12 13 13 15 15 16 14 14 15 15 15 14 15 14 15 14 15 15 14 17 14 14 13 13 12 11 11 10 12 14 14 13 12 11 10 10 9 8
17 15 17 20 19 15 13 11 9 9 10 16 17 16 14 8 8 8 8 9 9 9 10 10 10 10 10 10 11 13 13 12 12 11 11 11 12 11 11 12 13 13 13 14 15 15 15 15 16 15 16 15 14 15 15 14 16 16 14 14 14 12 13 13 14 13 14 13 13 12 11 10 10 8
4 7 9 10 13 11 14 13 11 10 10 8 8 9 9 8 8 8 8 9 10 10 10 10 10 11 11 11 12 11 10 11 11 11 11 11 11 12 12 13 14 14 13 11 13 14 15 16 16 16 16 16 14 15 14 14 16 15 14 13 14 16 10 10 13 14 14 15 13 12 10 9 8 8
3 5 8 8 6 6 6 6 5 5 6 6 6 7 8 9 8 10 12 11 8 8 9 10 11 11 11 11 11 11 11 11 11 10 10 11 12 12 13 12 12 12 14 13 12 12 13 14 15 14 17 17 17 14 12 13 14 14 13 13 14 15 16 15 14 15 13 12 13 12 11 8 7 8
3 3 4 4 5 5 6 7 6 6 7 7 6 7 7 8 8 8 8 8 9 9 9 10 10 11 11 11 11 11 11 11 11 11 11 11 12 12 12 14 14 14 14 14 13 13 11 11 13 15 15 14 15 15 13 13 14 13 13 13 13 15 14 14 13 14 14 13 13 12 11 7 6 7
2 4 4 4 5 6 6 6 7 7 7 8 9 7 9 9 8 8 8 8 9 10 10 10 10 10 11 11 11 11 12 12 11 11 13 12 12 12 12 12 13 13 13 15 14 14 14 13 13 12 14 15 16 16 14 14 15 13 13 13 15 16 14 13 13 14 15 14 12 12 11 8 7 6
2 3 4 4 4 4 5 6 7 8 9 9 9 9 9 8 9 9 8 8 10 11 10 10 10 10 10 11 11 12 12 12 12 12 11 11 11 12 12 13 13 13 13 14 14 13 13 13 12 13 13 11 12 13 19 19 15 16 13 15 15 16 15 13 13 14 14 14 13 14 13 10 8 6
3 2 3 4 4 4 5 6 7 8 8 8 9 10 10 10 9 9 9 10 11 10 10 10 11 10 10 11 11 11 12 12 12 11 12 11 12 12 12 12 13 13 13 13 14 13 13 13 13 14 14 13 10 11 11 22 25 15 14 15 14 14 14 13 13 12 13 14 13 13 13 13 10 7
3 3 3 4 4 4 5 6 7 7 7 8 8 8 9 10 10 10 10 12 10 10 10 10 10 11 11 11 11 12 11 11 11 12 12 11 11 12 12 12 13 13 13 14 13 14 12 13 13 14 14 12 8 10 13 7 20 28 14 14 14 13 13 12 11 11 12 13 12 11 11 10 10 8
3 3 3 4 4 4 5 5 6 7 8 8 8 8 8 9 9 11 11 10 10 9 10 10 11 11 11 11 11 11 11 11 11 11 11 11 11 11 12 13 13 13 14 14 14 14 12 12 13 13 13 12 9 11 13 10 8 11 24 17 13 13 11 12 12 11 12 11 11 10 9 11 11 8
3 3 3 4 4 4 4 5 6 8 8 7 8 8 9 9 9 9 9 9 9 9 10 11 11 11 11 11 11 11 11 11 11 11 11 11 11 12 12 13 13 13 13 14 14 13 12 12 12 12 11 11 10 11 13 12 11 6 6 22 14 11 11 10 10 10 9 10 10 10 7 1 5 8
3 3 4 4 4 4 4 5 6 7 8 8 8 8 8 9 9 9 9 9 9 11 11 11 11 11 11 11 11 11 11 12 12 11 12 12 12 12 12 12 13 13 13 14 14 14 13 12 11 10 11 12 12 12 9 7 6 6 7 8 21 19 13 10 10 8 10 10 9 9 5 4 4 3
3 3 4 3 4 4 5 5 6 7 8 8 8 8 8 9 9 9 9 10 11 11 10 10 10 11 11 11 12 11 12 12 12 11 12 12 13 13 15 16 13 12 12 13 14 14 13 12 13 20 18 12 12 10 8 8 9 8 7 6 4 10 14 9 5 4 2 0 0 4 6 4 3 2
3 4 4 3 4 4 5 5 5 6 7 7 8 8 9 9 9 13 12 12 10 10 10 10 10 11 11 11 11 11 11 12 12 12 12 12 12 13 14 12 12 12 12 12 13 13 13 13 12 11 10 9 9 7 8 9 9 7 2 2 3 5 8 4 7 11 6 1 3 3 4 4 1 2
4 4 4 4 4 5 5 5 5 5 6 7 8 8 8 9 9 9 8 9 9 9 9 10 10 10 10 10 11 11 11 12 12 13 13 12 12 12 12 12 12 12 12 12 12 12 12 12 10 10 9 8 7 7 8 8 5 3 2 2 2 3 4 5 13 15 15 17 14 7 3 1 3 3
3 4 4 4 4 5 5 5 5 5 6 6 7 8 8 8 9 9 9 9 9 9 10 10 10 10 11 11 11 11 11 12 12 13 13 12 12 12 12 13 13 13 12 12 11 11 11 11 10 9 8 7 6 6 6 6 6 3 3 3 2 2 3 4 5 8 12 16 15 11 13 13 10 9
3 4 4 4 5 5 4 4 5 5 5 6 7 7 8 8 8 9 9 9 9 10 10 10 10 11 11 11 11 11 11 13 12 11 11 12 12 12 12 12 12 12 11 10 11 11 10 10 9 8 7 6 6 5 5 5 5 4 3 3 3 3 4 3 4 5 6 5 11 11 9 8 9 10
Wind_Direction
323 327 322 313 310 310 313 307 305 308 300 296 295 290 290 296 293 303 304 297 302 299 300 296 291 284 286 298 313 307 302 299 305 300 292 289 288 291 296 300 303 302 301 300 299 295 292 289 285 282 280 279 279 279 277 275 273 272 270 270 272 273 278 276 277 264 243 226 218 217 223 234 247 254
324 317 316 311 308 309 308 303 300 293 295 290 286 286 285 281 279 287 293 294 289 294 292 280 292 300 302 307 303 297 289 291 303 297 292 289 285 289 292 294 295 296 297 297 296 294 292 289 286 282 280 278 277 277 278 277 275 273 272 271 269 270 270 270 269 268 253 230 216 217 222 223 233 238
328 323 319 319 312 316 311 306 301 297 291 291 290 287 283 275 271 274 281 287 284 284 298 293 289 298 297 294 293 296 295 295 293 292 291 286 288 290 283 278 282 286 291 294 291 289 288 287 285 284 281 279 278 277 277 278 279 277 273 271 269 268 268 270 269 265 249 229 222 224 222 220 225 234
327 324 325 323 324 322 317 310 308 303 297 294 290 287 282 280 276 275 276 272 282 292 292 290 293 292 296 299 297 293 292 291 280 284 284 291 297 290 292 282 279 283 285 286 289 290 288 285 285 284 282 280 278 277 276 275 276 278 277 273 269 266 265 266 267 267 251 236 229 228 224 222 225 230
326 324 319 318 322 321 316 314 311 306 301 297 291 287 285 282 281 282 279 281 288 291 289 291 296 302 301 295 297 297 298 299 302 298 292 290 289 290 286 287 279 274 276 280 285 288 287 285 282 281 280 279 277 276 274 274 273 274 275 275 272 268 265 264 262 260 257 246 233 225 222 221 225 229
328 322 319 321 324 325 317 312 308 307 308 303 299 295 294 290 290 287 286 285 286 292 301 298 298 301 302 294 301 305 308 306 304 300 296 289 285 281 285 287 285 280 278 276 278 282 285 285 283 282 280 279 278 277 277 275 273 272 272 273 273 270 266 263 262 261 259 250 239 229 224 224 227 229
328 323 324 321 325 323 316 312 310 308 304 306 303 301 299 295 293 292 288 287 287 290 293 300 303 305 309 305 308 308 304 302 304 301 298 295 291 283 279 279 283 278 273 273 271 277 281 284 283 282 281 280 279 277 276 274 272 270 270 270 271 270 267 263 260 258 259 261 254 239 229 229 230 232
324 321 320 320 324 319 315 314 312 309 310 308 304 301 301 298 297 296 292 288 287 292 294 297 301 306 308 308 305 305 303 302 303 302 301 300 296 293 286 279 276 281 281 277 275 275 277 278 279 280 280 279 278 277 274 273 272 270 268 266 266 266 267 264 259 256 256 254 255 257 250 236 233 235
316 316 314 316 319 318 313 312 313 313 311 307 306 302 304 300 300 298 296 293 291 291 290 295 299 304 304 306 306 308 308 304 300 303 301 302 301 297 292 286 281 278 276 278 275 271 269 269 272 274 277 277 276 275 275 273 272 270 268 267 266 266 265 263 260 255 252 251 251 252 254 254 244 237
312 309 310 312 311 311 311 309 310 309 310 309 302 304 301 301 298 297 295 292 291 290 289 294 300 304 309 312 308 312 313 310 308 306 304 300 299 299 299 297 297 296 294 292 294 290 277 270 267 270 273 275 275 274 273 273 271 268 266 264 264 264 264 264 261 257 252 249 248 247 249 251 252 247
302 302 302 302 303 303 304 302 306 309 308 305 303 304 304 302 301 300 299 300 299 297 295 295 296 303 307 311 312 315 315 310 307 308 311 308 311 315 314 310 307 304 299 292 284 281 282 279 275 274 272 272 271 272 272 271 269 267 264 264 264 263 263 263 261 259 254 249 245 244 243 244 246 247
295 296 295 294 295 295 299 305 304 305 304 305 303 303 303 304 304 303 304 304 300 298 298 297 302 303 304 308 305 309 313 310 309 313 316 311 312 308 302 299 303 303 300 300 296 287 283 283 276 267 260 257 259 262 265 265 265 264 263 264 265 265 264 263 261 259 255 249 245 242 241 240 241 243
295 293 292 291 293 297 297 295 293 294 296 299 298 300 302 304 303 302 302 302 300 298 298 298 300 301 303 306 312 314 312 309 309 313 311 298 298 302 303 301 299 301 303 300 299 296 295 288 283 285 283 277 269 263 254 260 258 258 261 261 261 260 261 261 261 260 256 251 245 241 239 238 238 238
296 296 294 296 297 295 293 292 293 295 295 291 289 293 298 299 299 298 299 298 298 297 296 296 301 300 300 304 305 303 303 302 303 303 301 299 303 306 302 296 299 308 304 301 299 300 301 297 293 287 283 281 273 268 261 258 260 255 256 260 261 259 258 258 259 259 257 253 247 242 239 237 236 236
304 303 302 299 297 294 290 291 292 301 297 294 293 291 291 290 292 297 295 292 294 293 290 293 293 294 296 298 300 299 300 299 299 299 302 301 303 305 305 303 308 316 315 314 311 300 301 304 299 296 289 287 283 280 272 271 264 256 257 263 266 266 264 260 258 257 257 256 252 245 240 237 235 234
304 303 303 300 297 294 297 302 304 300 297 297 294 293 292 290 287 282 281 287 289 287 289 289 288 291 292 294 297 298 298 299 297 295 294 293 293 295 297 296 299 314 321 307 300 292 289 285 283 283 284 286 287 281 280 278 273 263 262 262 262 262 261 259 258 256 256 256 255 251 244 239 236 234
297 301 302 301 297 296 295 299 299 295 298 302 296 292 289 287 284 282 279 278 278 283 283 284 284 283 287 287 286 285 289 291 291 289 283 282 282 285 287 290 296 303 312 302 295 290 287 290 285 278 275 275 279 284 282 276 269 264 259 258 259 259 259 259 258 256 256 256 256 254 250 243 238 235
291 293 299 303 301 297 302 302 302 306 302 297 296 290 281 278 279 281 279 279 277 276 276 277 276 275 274 277 280 281 282 282 281 282 279 278 280 276 275 289 292 295 295 286 290 286 285 292 287 282 283 282 279 277 277 278 277 273 265 261 261 261 260 259 260 259 256 255 255 255 253 248 241 237
287 289 289 290 293 298 297 295 294 294 295 293 285 279 272 264 263 269 274 277 278 278 273 272 272 273 271 272 273 274 273 272 273 271 272 273 276 281 282 281 285 287 282 278 278 279 290 301 288 283 285 286 283 280 279 277 276 275 273 270 269 268 264 261 258 258 257 255 253 253 253 251 247 240
284 288 288 289 290 291 292 291 293 293 294 292 283 276 267 263 261 259 258 258 262 265 266 265 265 264 263 262 265 265 261 261 258 264 272 274 279 284 289 288 292 284 283 275 277 280 285 297 291 288 286 284 280 277 275 275 275 275 274 272 271 270 267 264 262 258 256 256 254 252 252 252 250 245
280 283 282 284 288 290 289 292 295 296 294 286 278 275 272 262 253 255 257 262 262 265 265 268 272 274 276 281 281 280 280 283 285 287 287 285 293 289 288 287 287 282 282 276 274 279 285 298 293 290 289 286 283 281 278 278 276 274 275 276 276 272 269 267 265 262 258 256 255 254 252 251 251 248
279 273 274 271 277 281 284 289 293 296 300 296 292 290 284 278 273 268 270 274 271 270 273 274 276 278 283 286 287 285 284 284 285 280 280 286 286 281 279 283 283 283 279 277 278 278 275 290 287 290 294 294 282 281 282 281 277 275 272 270 271 271 270 268 266 265 262 258 256 256 253 251 250 249
270 276 274 269 267 279 292 298 303 304 302 297 290 288 287 286 283 278 276 273 281 284 281 277 276 273 270 273 274 274 276 275 275 274 274 277 274 275 275 277 284 283 273 275 274 274 282 291 295 308 304 297 288 267 275 285 293 291 283 279 277 274 272 269 267 266 264 260 257 255 253 251 247 246
270 269 281 286 292 296 299 302 304 305 303 300 300 297 292 292 292 301 298 293 292 292 294 294 294 292 290 286 280 275 271 269 266 267 267 267 268 269 271 272 271 272 278 280 280 278 282 286 287 288 286 296 299 311 308 298 289 292 298 295 292 284 281 277 270 267 264 260 258 256 253 252 246 244
295 297 291 305 308 309 309 307 306 307 308 309 309 306 303 302 303 306 304 314 323 318 312 303 296 290 287 282 280 279 278 275 274 271 269 265 265 267 269 272 272 272 275 278 281 278 280 281 282 284 279 278 283 294 290 290 294 296 290 280 278 280 278 278 279 278 275 264 257 253 252 250 247 241
295 303 316 315 310 309 308 310 312 312 311 311 311 306 305 307 310 311 315 319 316 307 300 295 290 288 284 283 285 282 279 278 277 276 274 272 271 270 270 270 273 276 276 278 279 277 280 279 278 282 282 283 283 283 292 289 292 296 293 290 283 276 277 279 276 276 273 270 268 256 250 246 246 245
309 315 312 308 308 313 316 315 313 312 314 315 310 311 313 314 316 320 319 316 312 308 305 297 290 287 286 290 292 288 288 286 284 282 279 278 276 272 269 266 265 268 273 277 274 271 272 274 272 272 274 276 282 285 280 289 291 291 288 287 291 290 284 274 266 266 268 267 265 262 259 253 247 242
309 309 307 311 317 319 317 315 315 315 317 315 316 319 319 324 326 322 317 315 312 307 300 295 292 291 292 292 288 286 289 292 291 289 286 282 278 273 272 271 270 270 273 273 273 269 269 270 270 266 266 270 273 275 281 277 280 283 282 285 281 278 277 278 276 269 266 265 265 261 256 251 245 243
305 306 312 318 319 318 318 320 320 320 320 323 323 324 327 330 324 323 319 316 311 304 300 298 297 293 292 290 288 287 287 289 288 285 283 281 277 274 272 272 270 271 269 268 268 265 262 262 264 265 264 261 262 266 268 276 280 279 276 281 276 278 284 279 269 266 263 261 261 257 253 251 246 238
307 311 314 316 318 318 320 322 322 321 322 323 324 324 326 323 321 319 316 311 310 302 300 298 296 296 297 295 295 294 290 289 287 289 288 288 284 280 278 280 274 262 257 256 260 262 258 257 259 259 260 257 254 261 261 268 271 270 272 273 275 272 262 269 275 275 270 265 260 257 253 248 241 232
320 313 316 314 314 312 314 317 315 316 322 325 327 328 326 318 313 313 313 310 305 301 299 300 300 301 299 299 297 294 292 292 290 290 290 287 286 284 282 281 279 276 271 264 260 259 259 258 258 256 257 258 255 249 255 255 263 268 267 268 272 273 266 262 264 263 258 258 261 253 248 240 235 227
319 309 312 312 312 312 316 319 320 323 322 317 316 322 324 316 310 308 306 304 299 299 304 302 302 299 303 301 299 297 294 293 294 292 291 290 288 285 283 275 271 273 279 277 269 256 244 242 245 247 253 255 254 251 246 248 252 259 263 263 263 266 270 265 259 264 261 257 253 248 244 233 230 225
326 315 309 311 317 322 321 324 324 327 328 321 314 307 317 318 320 321 321 317 313 311 309 305 303 302 302 302 302 300 297 298 305 308 302 295 292 290 281 276 277 280 281 283 282 282 278 260 236 239 243 241 240 243 248 254 250 251 257 259 261 261 264 260 259 257 256 248 247 249 244 226 224 229
330 311 305 307 316 319 322 322 324 327 329 323 321 317 323 325 322 318 318 316 317 314 310 306 305 304 305 303 304 306 307 307 305 306 305 301 297 292 288 285 284 282 282 283 284 284 285 275 267 249 236 236 237 235 234 241 251 250 247 254 256 261 259 261 257 251 252 247 240 240 237 227 219 218
307 306 299 303 307 309 314 318 320 324 324 323 320 318 319 322 321 321 318 321 320 316 312 311 308 307 305 306 309 310 308 307 307 306 306 304 303 300 299 295 294 293 291 289 288 287 284 281 277 272 262 256 255 246 227 228 245 247 249 249 257 254 256 250 252 250 246 244 239 245 244 229 220 210
290 283 291 299 303 308 310 316 318 316 310 309 309 314 319 320 324 320 320 319 314 310 311 313 313 312 311 308 307 305 306 305 303 303 305 307 306 302 297 293 293 294 294 293 294 292 292 289 287 284 281 279 268 268 271 223 220 237 240 251 247 248 249 247 249 248 246 241 236 235 239 237 226 210
284 275 281 285 290 298 300 306 311 309 300 301 302 304 303 307 312 314 307 308 303 305 308 311 313 315 311 309 307 305 305 305 304 304 302 300 298 298 299 298 298 298 298 296 294 293 289 287 283 283 282 277 251 263 265 269 220 217 228 237 244 243 243 244 243 237 234 235 230 220 228 232 231 229
267 274 275 277 282 286 291 297 302 305 304 299 295 298 297 297 301 303 303 306 309 308 310 314 312 311 310 310 310 308 306 304 303 301 301 300 301 301 300 301 301 300 301 298 296 293 292 287 283 280 284 282 273 267 281 276 279 231 214 221 235 241 242 243 238 235 234 225 223 221 221 231 233 234
260 267 271 274 279 282 288 292 299 301 297 295 294 294 298 299 298 301 303 301 299 308 313 312 313 314 314 312 310 309 307 307 306 304 302 303 301 300 301 301 300 300 301 298 297 295 293 289 287 290 295 301 289 288 284 286 277 295 246 223 228 241 244 247 250 236 224 225 221 223 223 193 68 89
255 259 264 270 274 282 283 287 292 299 298 292 290 292 293 293 299 301 299 300 306 314 314 314 314 317 316 314 310 308 305 303 303 303 304 303 303 301 300 299 299 298 297 296 300 302 303 299 301 315 318 299 293 289 298 288 283 272 269 254 237 236 241 245 245 238 233 224 220 213 185 160 194 189
252 259 260 260 273 277 277 282 286 295 296 291 289 287 287 290 293 293 297 304 309 312 312 313 317 319 317 317 315 314 311 310 308 305 305 304 303 302 300 301 296 296 298 300 301 302 302 309 308 303 295 283 277 282 274 266 269 269 264 258 297 279 264 260 264 244 224 224 209 201 182 162 173 162
249 253 261 263 265 271 274 276 281 287 291 294 291 291 293 293 288 296 299 303 307 308 311 313 317 320 319 319 318 317 313 311 310 309 308 306 305 302 301 300 298 300 299 298 300 299 304 303 303 300 297 294 295 286 278 283 283 296 305 329 306 338 334 302 30 36 31 320 199 147 72 61 89 178
242 248 255 260 259 262 263 267 272 277 283 291 290 290 292 292 295 301 303 304 309 312 314 315 316 317 317 319 317 317 314 312 311 309 307 306 304 303 303 302 301 300 298 297 296 302 305 309 307 309 310 311 315 314 302 311 329 341 332 303 346 10 21 56 68 63 49 39 31 34 27 136 170 213
245 251 254 254 256 258 256 260 266 271 279 280 287 290 287 292 297 299 302 304 307 311 313 314 317 317 318 318 317 316 317 316 314 311 309 307 306 304 303 303 302 302 302 300 307 309 313 312 313 315 319 325 325 321 322 328 315 333 342 2 14 29 31 30 48 45 46 40 30 45 58 58 60 64
249 252 260 260 259 262 260 259 266 273 278 282 284 283 285 287 290 296 298 300 302 307 312 313 315 317 318 318 317 314 314 315 314 310 309 308 309 308 305 305 304 306 304 309 314 316 318 317 316 323 321 323 331 324 322 326 326 327 335 11 31 41 36 14 37 44 32 24 5 22 54 61 71 74